[[{"header":{"parameterUnit":"m.s-1","parameterCategory":2,"la1":30.2991,"la2":30.254,"lo1":-89.0895,"lo2":-89.0444,"dy":0.0017,"dx":0.0017,"nx":28,"ny":28,"refTime":"2023-10-03T21:00:00:Z","depth":"0","parameterNumber":2,"parameterNumberName":"U-component_of_CURRENTS"},"data":[0,0,0,0,0,0,0,0,0,0,0,0,0,0,0,0,0,0,0,0,0,0,0,0,0,0,0,0,0,0,0,0,0,0,0,0,0,0,0,0,0,0,0,0,0,0,0,0,0,0,0,0,0,0,0,0,0,0,-0.2199,-0.22,0,-0.2268,-0.2269,-0.2269,-0.223,-0.2228,-0.2226,-0.2224,-0.2241,-0.2243,-0.2245,0,0,0,0,0,0,0,0,0,0,0,0,0,-0.2081,-0.2083,-0.2199,-0.22,-0.2201,-0.2268,-0.2269,-0.227,-0.223,-0.2228,-0.2226,-0.2223,-0.224,-0.2243,-0.2245,0,0,0,0,0,0,0,0,0,0,0,0,0,-0.2138,-0.2083,-0.2199,-0.219,-0.219,-0.2268,-0.2269,-0.227,-0.2231,-0.2228,-0.2225,-0.2222,-0.2239,-0.2242,-0.2246,-0.2322,0,0,-0.2256,-0.2257,0,0,0,0,0,0,0,0,-0.2135,-0.2143,-0.219,-0.2191,-0.2191,-0.2238,-0.2233,-0.2285,-0.2231,-0.2214,-0.2224,-0.2221,-0.2238,-0.2241,-0.226,-0.2323,-0.2323,-0.2256,-0.2258,-0.2259,-0.226,0,0,0,0,0,0,0,-0.2131,-0.214,-0.2226,-0.2191,-0.2192,-0.2199,-0.2203,-0.2243,-0.2239,-0.2216,-0.2213,-0.2223,-0.2237,-0.2257,-0.226,-0.2324,-0.2256,-0.2259,-0.2261,-0.2262,-0.2416,-0.2418,0,0,0,0,0,0,-0.2125,-0.2136,-0.2223,-0.2228,-0.2156,-0.2203,-0.2208,-0.2225,-0.224,-0.224,-0.2225,-0.2221,-0.2252,-0.2256,-0.226,-0.2359,-0.2259,-0.2262,-0.2264,-0.2414,-0.2417,-0.2419,0,0,0,0,0,0,-0.2123,-0.2133,-0.2221,-0.2183,-0.2195,-0.2208,-0.2227,-0.2228,-0.2237,-0.2248,-0.2246,-0.2232,-0.225,-0.2255,-0.2315,-0.2358,-0.2264,-0.2267,-0.2412,-0.2415,-0.2418,-0.2552,0,0,0,0,0,0,-0.2119,-0.2132,-0.214,-0.2183,-0.2197,-0.2273,-0.223,-0.2231,-0.2248,-0.2243,-0.2254,-0.2253,-0.2249,-0.2311,-0.2319,-0.2361,-0.2269,-0.2409,-0.2413,-0.2417,-0.2545,-0.2559,-0.2572,0,0,0,0,0,-0.2115,-0.2138,-0.214,-0.215,-0.2209,-0.2276,-0.2284,-0.2282,-0.2251,-0.2275,-0.229,-0.2252,-0.234,-0.2317,-0.2325,-0.2369,-0.2407,-0.2412,-0.2417,-0.2539,-0.2556,-0.2571,0,0,0,0,0,0,-0.2091,-0.2138,-0.214,-0.2176,-0.2225,-0.2269,-0.2283,-0.2289,-0.2321,-0.2304,-0.2303,-0.2307,-0.2369,-0.2355,-0.233,-0.2422,-0.2358,-0.2365,-0.2448,-0.2465,-0.2478,-0.2423,-0.2272,0,0,0,0,0,-0.2093,-0.2116,-0.2174,-0.2201,-0.2223,-0.2255,-0.2277,-0.2286,-0.232,-0.2329,-0.2348,-0.2361,-0.2401,-0.242,-0.2446,-0.2516,-0.2458,-0.254,-0.2553,-0.2565,-0.2525,-0.2519,-0.2528,-0.2435,-0.2435,-0.2435,0,0,-0.209,-0.2118,-0.213,-0.2197,-0.2223,-0.2272,-0.2261,-0.2301,-0.234,-0.233,-0.2386,-0.2415,-0.243,-0.2504,-0.2528,-0.2496,-0.2565,-0.2571,-0.2581,-0.2533,-0.2525,-0.2533,-0.2541,-0.2438,-0.2438,-0.2437,0,0,-0.2092,-0.2123,-0.214,-0.2188,-0.224,-0.228,-0.2293,-0.2354,-0.2375,-0.2452,-0.245,-0.2511,-0.2565,-0.26,-0.2619,-0.2723,-0.2637,-0.2721,-0.2752,-0.275,-0.2757,-0.2762,-0.2711,-0.271,-0.2729,-0.2729,-0.2729,0,-0.2084,-0.212,-0.2159,-0.2195,-0.2236,-0.2283,-0.2327,-0.2374,-0.2449,-0.2473,-0.2473,-0.2567,-0.2609,-0.2684,-0.2728,-0.2754,-0.2704,-0.2698,-0.2767,-0.277,-0.2773,-0.2719,-0.2716,-0.2736,-0.2735,-0.2735,-0.2734,0,-0.2095,-0.2137,-0.2157,-0.2218,-0.2273,-0.2326,-0.2401,-0.2454,-0.249,-0.2528,-0.2607,-0.2678,-0.2714,-0.2767,-0.2788,-0.2841,-0.2783,-0.2787,-0.2723,-0.279,-0.2729,-0.2724,-0.2746,-0.2744,-0.2742,-0.274,0,0,-0.2055,-0.2147,-0.2151,-0.2195,-0.2294,-0.2345,-0.2421,-0.2507,-0.2536,-0.2617,-0.2653,-0.2779,-0.2783,-0.2802,-0.2846,-0.2871,-0.29,-0.2838,-0.2834,-0.2779,-0.284,-0.2796,-0.2785,-0.2909,-0.2909,-0.2909,-0.2792,0,-0.2056,-0.212,-0.2172,-0.2259,-0.2314,-0.2393,-0.2463,-0.2539,-0.2598,-0.265,-0.2715,-0.2767,-0.2805,-0.2834,-0.2868,-0.2889,-0.2888,-0.2926,-0.2784,-0.2779,-0.2728,-0.278,-0.2682,-0.2569,-0.2786,-0.2785,-0.2785,0,-0.2042,-0.2102,-0.2171,-0.2294,-0.2322,-0.2377,-0.2483,-0.2552,-0.2628,-0.2665,-0.2707,-0.2735,-0.2799,-0.2818,-0.2835,-0.2847,-0.2834,-0.2843,-0.2839,-0.2732,-0.2726,-0.2535,-0.255,-0.2535,-0.2776,-0.2776,-0.2777,0,-0.1988,-0.2103,-0.2159,-0.2202,-0.2341,-0.2381,-0.245,-0.254,-0.2587,-0.265,-0.2667,-0.2719,-0.2745,-0.2745,-0.2778,-0.2791,-0.2763,-0.2786,-0.2718,-0.2713,-0.2563,-0.2545,-0.2533,-0.2761,-0.2762,-0.2762,-0.2762,0,-0.1977,-0.2026,-0.2135,-0.2172,-0.2247,-0.2347,-0.241,-0.2478,-0.2548,-0.2589,-0.2651,-0.2676,-0.2727,-0.2729,-0.2739,-0.2702,-0.2722,-0.2698,-0.2685,-0.261,-0.2599,-0.2522,-0.2552,-0.2758,-0.2759,-0.2759,-0.276,0,-0.1911,-0.1979,-0.2055,-0.2183,-0.222,-0.2265,-0.2376,-0.2415,-0.2489,-0.2534,-0.2547,-0.2622,-0.2631,-0.2656,-0.2663,-0.2648,-0.2583,-0.2607,-0.2494,-0.2471,-0.2394,-0.2435,-0.2338,-0.2271,-0.249,-0.2488,-0.2487,0,-0.188,-0.1907,-0.2026,-0.206,-0.2116,-0.2197,-0.2247,-0.2359,-0.2405,-0.2504,-0.2518,-0.2545,-0.2563,-0.2537,-0.252,-0.2475,-0.25,-0.2357,-0.239,-0.2358,-0.2394,-0.241,-0.2363,-0.2238,-0.2234,-0.2232,-0.223,0,-0.1827,-0.1854,-0.1917,-0.1975,-0.203,-0.2102,-0.2185,-0.2207,-0.2336,-0.2374,-0.2422,-0.2436,-0.2445,-0.2383,-0.2342,-0.2308,-0.2301,-0.2299,-0.23,-0.2214,-0.2192,-0.2131,-0.2325,-0.2205,-0.2208,-0.2209,-0.2211,-0.2212,-0.1764,-0.178,-0.1831,-0.1883,-0.1939,-0.1973,-0.198,-0.2074,-0.211,-0.2153,-0.2264,-0.2271,-0.2276,-0.2211,-0.2178,-0.2076,-0.2128,-0.2023,-0.2073,-0.2091,-0.2037,-0.2161,-0.2025,-0.2026,-0.2028,-0.2029,-0.2029,0,-0.1681,-0.1698,-0.1736,-0.178,-0.1783,-0.1853,-0.1912,-0.1893,-0.1889,-0.1987,-0.2018,-0.2063,-0.2004,-0.2025,-0.1963,-0.1882,-0.1828,-0.1834,-0.1834,-0.1794,-0.1911,-0.1912,-0.1706,-0.1706,-0.1706,-0.1706,-0.1706,-0.1706,-0.1635,-0.162,-0.1638,-0.1603,-0.1628,-0.1584,-0.1582,-0.1571,-0.1614,-0.1628,-0.1704,-0.1818,-0.1856,-0.2007,-0.1911,-0.1812,-0.1768,-0.17,-0.1728,-0.1834,-0.1855,-0.1876,-0.1883,-0.1674,-0.1674,-0.1521,-0.152,-0.152]},{"header":{"parameterUnit":"m.s-1","parameterCategory":2,"la1":30.2991,"la2":30.254,"lo1":-89.0895,"lo2":-89.0444,"dy":0.0017,"dx":0.0017,"nx":28,"ny":28,"refTime":"2023-10-03T21:00:00:Z","depth":"0","parameterNumber":3,"parameterNumberName":"V-component_of_CURRENTS"},"data":[0,0,0,0,0,0,0,0,0,0,0,0,0,0,0,0,0,0,0,0,0,0,0,0,0,0,0,0,0,0,0,0,0,0,0,0,0,0,0,0,0,0,0,0,0,0,0,0,0,0,0,0,0,0,0,0,0,0,0.0057,0.0058,0,0.0157,0.0158,0.0159,0.0221,0.0222,0.0222,0.0222,0.0343,0.0346,0.0349,0,0,0,0,0,0,0,0,0,0,0,0,0,-0.0047,-0.0046,0.0057,0.0058,0.0059,0.0157,0.0158,0.016,0.0221,0.0222,0.0222,0.0222,0.0342,0.0346,0.0349,0,0,0,0,0,0,0,0,0,0,0,0,0,0.002,-0.0045,0.0057,0.0102,0.0107,0.0157,0.0158,0.016,0.0221,0.0222,0.0222,0.0222,0.0341,0.0346,0.035,0.0368,0,0,0.0363,0.0365,0,0,0,0,0,0,0,0,0.0016,0.0024,0.0094,0.0099,0.0104,0.0177,0.0166,0.0231,0.0221,0.0178,0.0222,0.0223,0.0289,0.0298,0.0316,0.0374,0.0379,0.0364,0.0366,0.0368,0.037,0,0,0,0,0,0,0,0.0011,0.002,0.0097,0.0095,0.0101,0.0128,0.0138,0.0179,0.023,0.0182,0.0186,0.0197,0.0292,0.0311,0.0319,0.0381,0.0364,0.0368,0.037,0.0372,0.0497,0.0498,0,0,0,0,0,0,-0.0004,0.0016,0.0094,0.01,0.006,0.013,0.0141,0.0153,0.023,0.0241,0.0196,0.0199,0.0304,0.0314,0.0324,0.0363,0.0368,0.0372,0.0375,0.0497,0.0497,0.0498,0,0,0,0,0,0,-0.0006,0.0002,0.009,0.006,0.0073,0.0131,0.0145,0.0155,0.0173,0.0241,0.0253,0.0204,0.0304,0.0317,0.0364,0.0368,0.0374,0.0379,0.0496,0.0497,0.0498,0.0434,0,0,0,0,0,0,-0.001,0.0001,-0.0001,0.0059,0.0074,0.0108,0.0145,0.0157,0.0179,0.0184,0.0251,0.0263,0.0306,0.0357,0.0368,0.0374,0.0382,0.0495,0.0496,0.0497,0.0435,0.0433,0.0431,0,0,0,0,0,-0.0014,-0.0023,-0.0001,0.0008,0.0072,0.0108,0.0117,0.0161,0.0179,0.018,0.0234,0.0261,0.0373,0.0361,0.0374,0.0381,0.0494,0.0496,0.0497,0.0436,0.0433,0.0431,0,0,0,0,0,0,-0.0075,-0.0015,0.0009,0.0018,0.0056,0.0118,0.0121,0.0154,0.0197,0.0202,0.0266,0.0282,0.0327,0.0363,0.0348,0.0424,0.0439,0.0444,0.0389,0.0386,0.0384,0.0348,0.0386,0,0,0,0,0,-0.0088,-0.0075,-0.0016,-0.0011,0.0005,0.0062,0.0081,0.0112,0.016,0.0179,0.0228,0.0286,0.0344,0.037,0.042,0.0455,0.0484,0.0472,0.0469,0.0467,0.0448,0.0509,0.051,0.0503,0.0503,0.0503,0,0,-0.0112,-0.0077,-0.0071,-0.0023,0.001,0.0021,0.0074,0.0095,0.0108,0.0186,0.0212,0.0276,0.0352,0.0397,0.042,0.0427,0.0483,0.0469,0.0466,0.0448,0.0511,0.0511,0.0512,0.0504,0.0504,0.0504,0,0,-0.0155,-0.0122,-0.0125,-0.0101,-0.0055,-0.0017,-0.0015,0.0044,0.0073,0.0111,0.0179,0.0245,0.0313,0.0379,0.042,0.0435,0.0469,0.0451,0.0408,0.0468,0.0468,0.0469,0.0496,0.0499,0.0449,0.0449,0.0449,0,-0.0188,-0.0178,-0.0124,-0.0124,-0.0115,-0.0041,-0.0051,-0.0008,0.0058,0.0084,0.0107,0.0239,0.0307,0.0381,0.0391,0.0428,0.045,0.041,0.0462,0.0464,0.0466,0.0493,0.0498,0.0446,0.0446,0.0447,0.0447,0,-0.0224,-0.0226,-0.023,-0.0202,-0.0187,-0.0183,-0.0123,-0.0095,-0.0049,0.0002,0.0078,0.018,0.0257,0.03,0.035,0.0405,0.0411,0.045,0.0461,0.0462,0.0491,0.0497,0.0442,0.0443,0.0444,0.0444,0,0,-0.0274,-0.0258,-0.0261,-0.0272,-0.023,-0.0222,-0.02,-0.0152,-0.013,-0.0052,-0.0017,0.0106,0.0166,0.0216,0.0302,0.036,0.0404,0.0397,0.0402,0.0406,0.0503,0.0537,0.0548,0.0446,0.0447,0.0448,0.0513,0,-0.0319,-0.0347,-0.032,-0.0356,-0.037,-0.0313,-0.0302,-0.0249,-0.0181,-0.0128,-0.0007,0.006,0.0134,0.0179,0.0248,0.0374,0.0418,0.038,0.0515,0.0518,0.0537,0.0556,0.0584,0.0647,0.0519,0.0521,0.0521,0,-0.0353,-0.0373,-0.0415,-0.0436,-0.0437,-0.0441,-0.0405,-0.0381,-0.0281,-0.023,-0.0139,-0.0047,0.0066,0.0124,0.0303,0.027,0.0365,0.0455,0.0461,0.0515,0.0565,0.0631,0.0663,0.0822,0.0531,0.053,0.053,0,-0.0408,-0.0439,-0.0477,-0.0484,-0.0488,-0.0493,-0.0482,-0.0409,-0.0387,-0.0285,-0.0253,-0.0115,-0.0036,0.01,0.0289,0.0291,0.0473,0.0509,0.062,0.0623,0.0684,0.0691,0.0873,0.0609,0.0609,0.0609,0.0609,0,-0.0458,-0.0493,-0.0507,-0.0534,-0.0583,-0.0557,-0.0571,-0.053,-0.0467,-0.0438,-0.0308,-0.0252,-0.0039,0.0099,0.0254,0.0456,0.0449,0.0606,0.0649,0.0663,0.0667,0.0839,0.0901,0.0611,0.0611,0.061,0.061,0,-0.0505,-0.051,-0.0571,-0.0601,-0.061,-0.0643,-0.0649,-0.0649,-0.0575,-0.0531,-0.0506,-0.0351,-0.0163,0.0048,0.0286,0.0418,0.0703,0.0672,0.0658,0.0698,0.0945,0.1001,0.1189,0.1273,0.0798,0.0799,0.08,0,-0.053,-0.056,-0.0627,-0.0672,-0.0689,-0.0725,-0.0748,-0.0706,-0.0698,-0.0584,-0.0571,-0.0391,-0.0244,0.0104,0.0376,0.0645,0.0771,0.0805,0.0829,0.0962,0.1056,0.1089,0.1148,0.088,0.0882,0.0883,0.0884,0,-0.0589,-0.0606,-0.0659,-0.0749,-0.0799,-0.0851,-0.0872,-0.0884,-0.0814,-0.0758,-0.0652,-0.0525,-0.0169,0.0165,0.0517,0.0674,0.0921,0.0841,0.1004,0.1151,0.1176,0.1276,0.0808,0.0897,0.0895,0.0894,0.0894,0.0893,-0.0629,-0.0685,-0.075,-0.0833,-0.0897,-0.0958,-0.0994,-0.0987,-0.0969,-0.086,-0.0726,-0.0501,-0.0004,0.051,0.0707,0.1101,0.1052,0.1203,0.126,0.1281,0.1371,0.0909,0.1035,0.1035,0.1035,0.1034,0.1034,0,-0.0684,-0.074,-0.0828,-0.093,-0.101,-0.1019,-0.1065,-0.1071,-0.1044,-0.0893,-0.0748,-0.0217,0.028,0.0743,0.1319,0.1519,0.1563,0.1597,0.1666,0.1708,0.1332,0.1346,0.1516,0.1516,0.1516,0.1516,0.1516,0.1515,-0.0717,-0.081,-0.0857,-0.1001,-0.1065,-0.1149,-0.1174,-0.1149,-0.1057,-0.0801,-0.0512,-0.0262,0.0408,0.1365,0.1898,0.1929,0.2104,0.2058,0.2156,0.1915,0.1883,0.1852,0.1883,0.2164,0.2164,0.2516,0.252,0.2523]}],[{"header":{"parameterUnit":"m.s-1","parameterCategory":2,"la1":30.2991,"la2":30.254,"lo1":-89.0895,"lo2":-89.0444,"dy":0.0017,"dx":0.0017,"nx":28,"ny":28,"refTime":"2023-10-03T21:00:00:Z","depth":"2","parameterNumber":2,"parameterNumberName":"U-component_of_CURRENTS"},"data":[0,0,0,0,0,0,0,0,0,0,0,0,0,0,0,0,0,0,0,0,0,0,0,0,0,0,0,0,0,0,0,0,0,0,0,0,0,0,0,0,0,0,0,0,0,0,0,0,0,0,0,0,0,0,0,0,0,0,-0.1941,-0.1941,0,-0.1977,-0.1977,-0.1978,-0.1944,-0.1943,-0.1942,-0.1941,-0.1952,-0.1953,-0.1955,0,0,0,0,0,0,0,0,0,0,0,0,0,-0.1831,-0.1833,-0.194,-0.1941,-0.1942,-0.1977,-0.1977,-0.1978,-0.1944,-0.1943,-0.1942,-0.1941,-0.1952,-0.1953,-0.1955,0,0,0,0,0,0,0,0,0,0,0,0,0,-0.1871,-0.1834,-0.194,-0.1932,-0.1932,-0.1977,-0.1977,-0.1978,-0.1945,-0.1943,-0.1942,-0.194,-0.1951,-0.1953,-0.1955,-0.1998,0,0,-0.1961,-0.1962,0,0,0,0,0,0,0,0,-0.1869,-0.1875,-0.1933,-0.1933,-0.1933,-0.1957,-0.1943,-0.1984,-0.1945,-0.1936,-0.1941,-0.1939,-0.1955,-0.1957,-0.1962,-0.1999,-0.1999,-0.1961,-0.1962,-0.1963,-0.1964,0,0,0,0,0,0,0,-0.1866,-0.1873,-0.1952,-0.1934,-0.1934,-0.1923,-0.1927,-0.195,-0.1951,-0.1937,-0.1935,-0.1945,-0.1954,-0.1961,-0.1962,-0.1999,-0.1961,-0.1963,-0.1964,-0.1965,-0.2101,-0.2103,0,0,0,0,0,0,-0.1871,-0.1871,-0.195,-0.1953,-0.19,-0.1927,-0.1931,-0.1948,-0.1951,-0.1951,-0.1947,-0.1944,-0.1958,-0.196,-0.1963,-0.2054,-0.1963,-0.1965,-0.1966,-0.2098,-0.2101,-0.2104,0,0,0,0,0,0,-0.1869,-0.1878,-0.1949,-0.1914,-0.1923,-0.1931,-0.1951,-0.195,-0.1956,-0.196,-0.1958,-0.1954,-0.1957,-0.196,-0.2012,-0.2053,-0.1966,-0.1967,-0.2095,-0.2099,-0.2103,-0.2212,0,0,0,0,0,0,-0.1866,-0.1877,-0.1888,-0.1915,-0.1925,-0.1986,-0.1953,-0.1952,-0.1967,-0.1963,-0.1966,-0.1965,-0.1956,-0.201,-0.2014,-0.2054,-0.1969,-0.2092,-0.2097,-0.2101,-0.2205,-0.2219,-0.2231,0,0,0,0,0,-0.1862,-0.1886,-0.1889,-0.1899,-0.1942,-0.1988,-0.1993,-0.1989,-0.1969,-0.1986,-0.2,-0.1965,-0.2041,-0.2014,-0.2019,-0.2059,-0.209,-0.2096,-0.2101,-0.2199,-0.2216,-0.223,0,0,0,0,0,0,-0.1844,-0.1887,-0.189,-0.1925,-0.1959,-0.1984,-0.1996,-0.1998,-0.2021,-0.2014,-0.2007,-0.201,-0.2067,-0.2055,-0.2025,-0.2112,-0.2056,-0.2063,-0.2129,-0.2145,-0.2157,-0.2109,-0.197,0,0,0,0,0,-0.1849,-0.1874,-0.1917,-0.1944,-0.1963,-0.1981,-0.1996,-0.2001,-0.2027,-0.2034,-0.2044,-0.2059,-0.2096,-0.2112,-0.2133,-0.219,-0.2142,-0.2216,-0.2229,-0.2239,-0.2204,-0.2205,-0.2213,-0.2122,-0.2122,-0.2122,0,0,-0.1847,-0.1874,-0.1888,-0.1942,-0.196,-0.1997,-0.1985,-0.2018,-0.2049,-0.2035,-0.2079,-0.2105,-0.2121,-0.2185,-0.2208,-0.2179,-0.2245,-0.2247,-0.2256,-0.2213,-0.2211,-0.222,-0.2227,-0.2126,-0.2125,-0.2125,0,0,-0.1853,-0.1885,-0.1903,-0.194,-0.1983,-0.2009,-0.2023,-0.2064,-0.2081,-0.2141,-0.2143,-0.2197,-0.224,-0.2272,-0.229,-0.2386,-0.2312,-0.2392,-0.2419,-0.2423,-0.2429,-0.2434,-0.2396,-0.2396,-0.2399,-0.2399,-0.24,0,-0.1848,-0.1883,-0.1917,-0.1949,-0.1982,-0.2017,-0.2052,-0.2088,-0.2142,-0.2163,-0.2163,-0.2245,-0.2279,-0.235,-0.2392,-0.2413,-0.2376,-0.2364,-0.2437,-0.2441,-0.2444,-0.2403,-0.2402,-0.2405,-0.2405,-0.2404,-0.2403,0,-0.1861,-0.19,-0.1919,-0.1972,-0.2015,-0.2057,-0.2117,-0.216,-0.219,-0.2217,-0.2289,-0.2345,-0.2379,-0.2427,-0.2443,-0.2496,-0.245,-0.2454,-0.2392,-0.2459,-0.2412,-0.241,-0.2414,-0.2412,-0.241,-0.2408,0,0,-0.1829,-0.1912,-0.1917,-0.1952,-0.2034,-0.2073,-0.2141,-0.221,-0.224,-0.2302,-0.2337,-0.2443,-0.2446,-0.2466,-0.2504,-0.2526,-0.2556,-0.2499,-0.2496,-0.2447,-0.2519,-0.2473,-0.2464,-0.2567,-0.2567,-0.2567,-0.248,0,-0.183,-0.1886,-0.1933,-0.2003,-0.2048,-0.2115,-0.2177,-0.2241,-0.2292,-0.2339,-0.2396,-0.2444,-0.247,-0.2498,-0.2527,-0.2547,-0.2549,-0.2575,-0.2469,-0.2465,-0.2406,-0.2461,-0.2289,-0.2196,-0.2477,-0.2476,-0.2476,0,-0.182,-0.187,-0.1928,-0.2031,-0.2055,-0.2101,-0.2195,-0.2254,-0.2328,-0.2362,-0.2404,-0.243,-0.2488,-0.2497,-0.2517,-0.2524,-0.2514,-0.2521,-0.2518,-0.242,-0.2413,-0.2173,-0.2179,-0.247,-0.247,-0.2471,-0.2471,0,-0.1772,-0.1867,-0.1915,-0.1951,-0.2067,-0.2105,-0.2165,-0.2249,-0.2292,-0.2359,-0.238,-0.243,-0.2456,-0.2457,-0.2482,-0.249,-0.2473,-0.249,-0.2425,-0.242,-0.2221,-0.2199,-0.2474,-0.2474,-0.2474,-0.2474,-0.2474,0,-0.1761,-0.1801,-0.1895,-0.1925,-0.1987,-0.2075,-0.2134,-0.2198,-0.2269,-0.231,-0.2372,-0.24,-0.2446,-0.2452,-0.2456,-0.2422,-0.2447,-0.241,-0.2399,-0.2258,-0.2241,-0.2432,-0.2428,-0.2471,-0.2472,-0.2472,-0.2473,0,-0.1702,-0.1764,-0.1824,-0.1933,-0.1965,-0.2003,-0.2103,-0.2141,-0.2218,-0.2267,-0.2283,-0.236,-0.2374,-0.2396,-0.2405,-0.2385,-0.2368,-0.2346,-0.216,-0.2131,-0.2308,-0.2311,-0.2246,-0.2244,-0.2242,-0.2241,-0.2239,0,-0.1676,-0.1698,-0.1797,-0.1825,-0.1873,-0.1943,-0.1989,-0.2094,-0.2138,-0.2242,-0.2258,-0.2294,-0.2311,-0.2291,-0.2267,-0.2224,-0.2305,-0.204,-0.2047,-0.229,-0.2287,-0.2293,-0.2299,-0.1819,-0.1815,-0.1811,-0.1808,0,-0.1623,-0.1649,-0.1699,-0.1747,-0.1795,-0.1854,-0.1931,-0.1952,-0.2076,-0.2117,-0.217,-0.2185,-0.2195,-0.2091,-0.2051,-0.2008,-0.2038,-0.1963,-0.2251,-0.1926,-0.1887,-0.1885,-0.1904,-0.1774,-0.1777,-0.178,-0.1782,-0.1783,-0.1564,-0.1573,-0.1618,-0.1658,-0.1708,-0.1736,-0.1739,-0.1825,-0.1861,-0.1902,-0.2011,-0.199,-0.1991,-0.1854,-0.1776,-0.1712,-0.1851,-0.1765,-0.1777,-0.1792,-0.1781,-0.1744,-0.1597,-0.16,-0.1602,-0.1603,-0.1605,0,-0.1478,-0.1496,-0.1526,-0.156,-0.156,-0.1626,-0.1677,-0.1653,-0.165,-0.1722,-0.1751,-0.1606,-0.1551,-0.1562,-0.1423,-0.1402,-0.138,-0.1336,-0.1307,-0.1341,-0.1371,-0.134,-0.1038,-0.1037,-0.1035,-0.1034,0,0,-0.1433,-0.1417,-0.143,-0.1392,-0.1416,-0.1373,-0.1371,-0.1352,-0.1371,-0.1325,-0.133,-0.1468,-0.1518,-0.1283,-0.1222,-0.1112,-0.121,-0.1053,-0.1505,-0.1504,-0.1532,-0.1614,-0.1603,0,0,0,0,0]},{"header":{"parameterUnit":"m.s-1","parameterCategory":2,"la1":30.2991,"la2":30.254,"lo1":-89.0895,"lo2":-89.0444,"dy":0.0017,"dx":0.0017,"nx":28,"ny":28,"refTime":"2023-10-03T21:00:00:Z","depth":"2","parameterNumber":3,"parameterNumberName":"V-component_of_CURRENTS"},"data":[0,0,0,0,0,0,0,0,0,0,0,0,0,0,0,0,0,0,0,0,0,0,0,0,0,0,0,0,0,0,0,0,0,0,0,0,0,0,0,0,0,0,0,0,0,0,0,0,0,0,0,0,0,0,0,0,0,0,0.0035,0.0036,0,0.0128,0.0129,0.013,0.0188,0.0189,0.0189,0.0189,0.0296,0.0299,0.0301,0,0,0,0,0,0,0,0,0,0,0,0,0,-0.0066,-0.0065,0.0035,0.0036,0.0038,0.0128,0.0129,0.013,0.0188,0.0189,0.0189,0.0189,0.0296,0.0299,0.0302,0,0,0,0,0,0,0,0,0,0,0,0,0,-0.0003,-0.0064,0.0035,0.0077,0.0082,0.0128,0.0129,0.0131,0.0188,0.0189,0.0189,0.019,0.0295,0.0298,0.0302,0.0316,0,0,0.0314,0.0315,0,0,0,0,0,0,0,0,-0.0007,0.0001,0.007,0.0074,0.008,0.0147,0.0133,0.0193,0.0188,0.0148,0.0189,0.019,0.0248,0.0255,0.0271,0.0321,0.0325,0.0314,0.0316,0.0318,0.0319,0,0,0,0,0,0,0,-0.0011,-0.0003,0.0072,0.0071,0.0077,0.0101,0.011,0.0145,0.0194,0.0151,0.0156,0.0166,0.0251,0.0267,0.0274,0.0327,0.0314,0.0317,0.032,0.0321,0.0433,0.0433,0,0,0,0,0,0,-0.0024,-0.0007,0.0069,0.0075,0.0037,0.0102,0.0112,0.0125,0.0193,0.0204,0.0166,0.0168,0.0261,0.027,0.0278,0.0308,0.0318,0.0322,0.0324,0.0432,0.0433,0.0434,0,0,0,0,0,0,-0.0026,-0.0018,0.0065,0.0036,0.0048,0.0103,0.0117,0.0127,0.0144,0.0204,0.0215,0.0173,0.0261,0.0273,0.0315,0.0312,0.0323,0.0327,0.0431,0.0432,0.0433,0.0362,0,0,0,0,0,0,-0.003,-0.0019,-0.002,0.0035,0.0049,0.0083,0.0117,0.0128,0.0149,0.0154,0.0214,0.0224,0.0263,0.0309,0.0318,0.0318,0.033,0.043,0.0432,0.0433,0.0363,0.036,0.0357,0,0,0,0,0,-0.0034,-0.0041,-0.0021,-0.0012,0.0048,0.0083,0.0092,0.0133,0.0149,0.0151,0.02,0.0223,0.0324,0.0312,0.0323,0.0324,0.043,0.0431,0.0433,0.0364,0.0361,0.0357,0,0,0,0,0,0,-0.009,-0.0034,-0.0011,-0.0002,0.0035,0.0093,0.0096,0.0126,0.0166,0.017,0.0228,0.0242,0.0279,0.0315,0.03,0.0363,0.0382,0.0386,0.0326,0.0323,0.032,0.0289,0.0333,0,0,0,0,0,-0.0102,-0.009,-0.0033,-0.0028,-0.0012,0.0041,0.0058,0.0087,0.0132,0.015,0.0193,0.0245,0.0294,0.0317,0.0362,0.0391,0.0422,0.0402,0.0399,0.0396,0.0381,0.044,0.044,0.0439,0.0439,0.0439,0,0,-0.0125,-0.0091,-0.0086,-0.0039,-0.0008,0.0001,0.0052,0.0073,0.0082,0.0155,0.0175,0.0233,0.0301,0.0338,0.0358,0.0366,0.0413,0.0398,0.0395,0.0381,0.0441,0.0441,0.0441,0.044,0.0439,0.0439,0,0,-0.0164,-0.0133,-0.0134,-0.0111,-0.0068,-0.0034,-0.0031,0.0023,0.005,0.0082,0.0143,0.0199,0.026,0.0315,0.035,0.0359,0.0396,0.0375,0.0333,0.039,0.039,0.039,0.042,0.0424,0.0373,0.0373,0.0373,0,-0.0196,-0.0185,-0.0133,-0.0132,-0.0126,-0.0056,-0.0067,-0.0029,0.0032,0.0053,0.0077,0.0192,0.025,0.0309,0.0316,0.035,0.0378,0.0335,0.0383,0.0384,0.0386,0.0417,0.0422,0.037,0.037,0.037,0.0371,0,-0.0227,-0.023,-0.0233,-0.0208,-0.0195,-0.0193,-0.0138,-0.0114,-0.0073,-0.0027,0.0037,0.0127,0.0194,0.023,0.0274,0.032,0.0334,0.037,0.0383,0.0381,0.0415,0.0421,0.0365,0.0366,0.0367,0.0368,0,0,-0.0273,-0.0259,-0.0262,-0.0275,-0.0238,-0.0232,-0.0216,-0.0175,-0.0158,-0.0087,-0.0059,0.0045,0.0101,0.0146,0.0221,0.0275,0.0316,0.0316,0.0321,0.0328,0.0419,0.0446,0.0456,0.0358,0.0359,0.0359,0.0433,0,-0.0316,-0.0344,-0.032,-0.0359,-0.0374,-0.0323,-0.0318,-0.0272,-0.0211,-0.0164,-0.0057,0.0001,0.0068,0.0108,0.017,0.0289,0.033,0.029,0.0434,0.0438,0.0449,0.0464,0.0422,0.0486,0.044,0.0441,0.0441,0,-0.0349,-0.037,-0.0413,-0.0439,-0.0441,-0.0449,-0.0423,-0.0403,-0.0313,-0.0266,-0.0183,-0.0098,0.0002,0.0057,0.0227,0.0196,0.0287,0.0373,0.0379,0.0431,0.0478,0.0485,0.05,0.0453,0.0452,0.0451,0.045,0,-0.0402,-0.0436,-0.0476,-0.0484,-0.0494,-0.0503,-0.0496,-0.0432,-0.0414,-0.0319,-0.0289,-0.0163,-0.0088,0.0042,0.022,0.0222,0.04,0.0431,0.0534,0.0536,0.0542,0.0543,0.0528,0.0528,0.0528,0.0528,0.0527,0,-0.0453,-0.049,-0.0505,-0.0533,-0.0586,-0.0564,-0.0583,-0.0548,-0.049,-0.0465,-0.0343,-0.029,-0.0088,0.0045,0.0192,0.0384,0.038,0.0521,0.0563,0.0516,0.0515,0.0522,0.052,0.053,0.053,0.0529,0.0529,0,-0.0499,-0.0506,-0.0567,-0.0601,-0.0613,-0.0647,-0.0658,-0.066,-0.0593,-0.0551,-0.0528,-0.038,-0.0199,0.0001,0.0229,0.0352,0.0531,0.0593,0.0512,0.0543,0.0628,0.0622,0.0708,0.071,0.0711,0.0712,0.0713,0,-0.0524,-0.0554,-0.0622,-0.0667,-0.0686,-0.0725,-0.075,-0.0714,-0.0707,-0.0599,-0.0586,-0.0414,-0.0274,0.0059,0.0306,0.0559,0.0569,0.0649,0.0654,0.0617,0.0649,0.064,0.0633,0.0627,0.0628,0.0628,0.0628,0,-0.0583,-0.0599,-0.0652,-0.0741,-0.0792,-0.0844,-0.0867,-0.0879,-0.0814,-0.0761,-0.0658,-0.0537,-0.0208,0.0072,0.0399,0.0535,0.0608,0.0661,0.066,0.059,0.0549,0.0577,0.0571,0.063,0.0629,0.0629,0.0629,0.0629,-0.0621,-0.0675,-0.0739,-0.0821,-0.0884,-0.0943,-0.0979,-0.0972,-0.0955,-0.085,-0.0725,-0.0519,-0.0234,0.0227,0.0463,0.0668,0.0671,0.0715,0.0712,0.0709,0.0688,0.0652,0.0747,0.0747,0.0747,0.0748,0.0748,0,-0.0674,-0.0729,-0.0815,-0.0912,-0.0988,-0.1001,-0.1044,-0.1047,-0.1019,-0.0882,-0.0745,-0.0437,-0.0101,0.0192,0.0534,0.0742,0.0719,0.0754,0.0692,0.0688,0.0686,0.0662,0.0715,0.0716,0.0716,0.0717,0,0,-0.0707,-0.0797,-0.0842,-0.0977,-0.1039,-0.1119,-0.1143,-0.1113,-0.1029,-0.0898,-0.0735,-0.0484,-0.011,0.0125,0.039,0.0567,0.0564,0.0566,0.0568,0.0459,0.0454,0.0637,0.0594,0,0,0,0,0]}],[{"header":{"parameterUnit":"m.s-1","parameterCategory":2,"la1":30.2991,"la2":30.254,"lo1":-89.0895,"lo2":-89.0444,"dy":0.0017,"dx":0.0017,"nx":28,"ny":28,"refTime":"2023-10-03T21:00:00:Z","depth":"4","parameterNumber":2,"parameterNumberName":"U-component_of_CURRENTS"},"data":[0,0,0,0,0,0,0,0,0,0,0,0,0,0,0,0,0,0,0,0,0,0,0,0,0,0,0,0,0,0,0,0,0,0,0,0,0,0,0,0,0,0,0,0,0,0,0,0,0,0,0,0,0,0,0,0,0,0,-0.1371,-0.1372,0,-0.1403,-0.1403,-0.1403,-0.1423,-0.1424,-0.1424,-0.1425,-0.1353,-0.1351,-0.1348,0,0,0,0,0,0,0,0,0,0,0,0,0,-0.1245,-0.1247,-0.1371,-0.1372,-0.1373,-0.1403,-0.1403,-0.1403,-0.1423,-0.1424,-0.1424,-0.1425,-0.1354,-0.1351,-0.1348,0,0,0,0,0,0,0,0,0,0,0,0,0,-0.1286,-0.1248,-0.1371,-0.139,-0.1392,-0.1403,-0.1403,-0.1403,-0.1423,-0.1424,-0.1424,-0.1425,-0.1355,-0.1351,-0.1348,-0.1309,0,0,-0.1336,-0.1335,0,0,0,0,0,0,0,0,-0.1284,-0.129,-0.1386,-0.1389,-0.1391,-0.1414,-0.1333,-0.1368,-0.1423,-0.1406,-0.1425,-0.1426,-0.1366,-0.1362,-0.1361,-0.1306,-0.1302,-0.1336,-0.1334,-0.1332,-0.1331,0,0,0,0,0,0,0,-0.1281,-0.1289,-0.1379,-0.1387,-0.139,-0.1369,-0.1376,-0.1339,-0.1376,-0.1408,-0.141,-0.1421,-0.1366,-0.1364,-0.1359,-0.1301,-0.1336,-0.1333,-0.1331,-0.1329,-0.1283,-0.1284,0,0,0,0,0,0,-0.1291,-0.1287,-0.1378,-0.1381,-0.1344,-0.1371,-0.1379,-0.1402,-0.1378,-0.1378,-0.1421,-0.1422,-0.137,-0.1363,-0.1356,-0.1407,-0.1332,-0.1329,-0.1327,-0.1282,-0.1284,-0.1285,0,0,0,0,0,0,-0.1288,-0.1299,-0.1377,-0.1337,-0.1346,-0.1374,-0.1399,-0.1403,-0.143,-0.139,-0.1387,-0.1449,-0.137,-0.1361,-0.1345,-0.1401,-0.1327,-0.1324,-0.1281,-0.1283,-0.1284,-0.1445,0,0,0,0,0,0,-0.1284,-0.1298,-0.1325,-0.1338,-0.1349,-0.1407,-0.1399,-0.1403,-0.1436,-0.1439,-0.1412,-0.1405,-0.137,-0.135,-0.1341,-0.1394,-0.1321,-0.128,-0.1282,-0.1284,-0.1438,-0.1452,-0.1463,0,0,0,0,0,-0.128,-0.1314,-0.1326,-0.1338,-0.1383,-0.1409,-0.1412,-0.1429,-0.1437,-0.1456,-0.1433,-0.1408,-0.1356,-0.1348,-0.1337,-0.139,-0.1279,-0.1281,-0.1283,-0.1433,-0.1449,-0.1463,0,0,0,0,0,0,-0.1268,-0.132,-0.1333,-0.1381,-0.1405,-0.1415,-0.1438,-0.1447,-0.1446,-0.1451,-0.141,-0.14,-0.1411,-0.1365,-0.1357,-0.1379,-0.1317,-0.1317,-0.1434,-0.1449,-0.1461,-0.1467,-0.1318,0,0,0,0,0,-0.128,-0.1325,-0.1356,-0.1396,-0.1412,-0.1429,-0.1446,-0.1459,-0.1459,-0.1462,-0.1444,-0.142,-0.1405,-0.14,-0.137,-0.1373,-0.134,-0.14,-0.1412,-0.1423,-0.1419,-0.1422,-0.1436,-0.1292,-0.1292,-0.1292,0,0,-0.1289,-0.1321,-0.135,-0.1397,-0.1416,-0.1442,-0.1441,-0.1479,-0.1508,-0.1449,-0.1479,-0.1459,-0.1412,-0.1427,-0.1428,-0.1401,-0.1449,-0.1426,-0.1437,-0.1425,-0.1426,-0.1441,-0.1453,-0.1293,-0.1293,-0.1293,0,0,-0.1307,-0.1357,-0.1391,-0.1416,-0.1458,-0.1472,-0.1492,-0.1519,-0.1545,-0.1562,-0.1538,-0.1552,-0.1516,-0.1515,-0.1503,-0.1558,-0.1512,-0.1552,-0.1626,-0.1632,-0.1645,-0.1655,-0.1651,-0.166,-0.1563,-0.1563,-0.1563,0,-0.1308,-0.1359,-0.1402,-0.1429,-0.1455,-0.1491,-0.1518,-0.155,-0.157,-0.1588,-0.1588,-0.1582,-0.1563,-0.1587,-0.162,-0.1593,-0.1574,-0.1584,-0.1652,-0.1662,-0.167,-0.1662,-0.167,-0.1571,-0.157,-0.1569,-0.1569,0,-0.1339,-0.1384,-0.1406,-0.1459,-0.1492,-0.1527,-0.1574,-0.1615,-0.1651,-0.1672,-0.1716,-0.1703,-0.1695,-0.1716,-0.1688,-0.1743,-0.1706,-0.1671,-0.1625,-0.1695,-0.1681,-0.1687,-0.1583,-0.158,-0.1577,-0.1575,0,0,-0.132,-0.1409,-0.1418,-0.1446,-0.1513,-0.1539,-0.1606,-0.1663,-0.1706,-0.1753,-0.1797,-0.1828,-0.1832,-0.1818,-0.1807,-0.1834,-0.1903,-0.1789,-0.1785,-0.1802,-0.191,-0.1782,-0.1774,-0.1884,-0.1885,-0.1886,-0.1886,0,-0.1325,-0.1379,-0.1428,-0.1484,-0.1515,-0.1577,-0.1632,-0.1694,-0.1746,-0.1799,-0.184,-0.1867,-0.1869,-0.1879,-0.1914,-0.189,-0.1919,-0.1905,-0.1822,-0.1819,-0.1712,-0.1777,-0.189,-0.189,-0.1891,-0.1891,-0.1892,0,-0.1327,-0.1367,-0.142,-0.1501,-0.1522,-0.1564,-0.1655,-0.1708,-0.1796,-0.1837,-0.1891,-0.1907,-0.1965,-0.195,-0.1979,-0.1967,-0.1954,-0.1945,-0.1943,-0.1764,-0.1699,-0.1795,-0.19,-0.1899,-0.1899,-0.1898,-0.1898,0,-0.128,-0.136,-0.1405,-0.1432,-0.1528,-0.1571,-0.1626,-0.1717,-0.1764,-0.1856,-0.1889,-0.1953,-0.1976,-0.1989,-0.1987,-0.1983,-0.1999,-0.198,-0.1856,-0.1846,-0.1892,-0.188,-0.2,-0.2,-0.2,-0.2,-0.2,0,-0.1255,-0.1294,-0.1392,-0.1415,-0.1472,-0.1549,-0.1616,-0.1682,-0.177,-0.1818,-0.1898,-0.193,-0.1988,-0.2003,-0.1999,-0.1937,-0.2006,-0.1872,-0.1839,-0.196,-0.1956,-0.1897,-0.1885,-0.2,-0.2,-0.2,-0.2,0,-0.1194,-0.1262,-0.1314,-0.1416,-0.1451,-0.1489,-0.1595,-0.1638,-0.1733,-0.1795,-0.1824,-0.1916,-0.1933,-0.1966,-0.1977,-0.1924,-0.1892,-0.1851,-0.1981,-0.1955,-0.1736,-0.1732,-0.1714,-0.1709,-0.1706,-0.1702,-0.17,0,-0.1164,-0.1188,-0.1293,-0.1323,-0.1372,-0.1444,-0.1493,-0.1604,-0.1648,-0.177,-0.1786,-0.1843,-0.1889,-0.1801,-0.1851,-0.1821,-0.1801,-0.1772,-0.1762,-0.1737,-0.1708,-0.171,-0.1712,-0.1694,-0.1693,-0.1692,-0.1691,0,-0.1096,-0.1146,-0.119,-0.1246,-0.1302,-0.1356,-0.1434,-0.1449,-0.1575,-0.168,-0.1699,-0.1704,-0.1716,-0.172,-0.1699,-0.1684,-0.1786,-0.1732,-0.174,-0.1731,-0.1713,-0.1688,-0.1694,-0.1677,-0.1679,-0.1681,-0.1681,0,-0.104,-0.1052,-0.111,-0.115,-0.1215,-0.1237,-0.1295,-0.1347,-0.1399,-0.1545,-0.1548,-0.1616,-0.1702,-0.1647,-0.1636,-0.1601,-0.1581,-0.1532,-0.155,-0.1565,-0.1515,-0.147,-0.1336,0,0,0,0,0,-0.0968,-0.0975,-0.1007,-0.1043,-0.1103,-0.1139,-0.1242,-0.1308,-0.1433,-0.1408,-0.1473,-0.1483,-0.147,-0.1506,-0.1437,-0.1558,-0.1578,-0.147,-0.1529,-0.1604,-0.162,-0.1573,0,0,0,0,0,0,-0.0919,-0.0952,-0.0966,-0.0938,-0.0945,-0.0997,-0.1056,-0.1149,-0.1148,-0.1282,-0.128,-0.1388,-0.1391,-0.1481,-0.1403,-0.1412,-0.1418,-0.1523,-0.1519,-0.1596,-0.161,-0.1622,-0.158,0,0,0,0,0]},{"header":{"parameterUnit":"m.s-1","parameterCategory":2,"la1":30.2991,"la2":30.254,"lo1":-89.0895,"lo2":-89.0444,"dy":0.0017,"dx":0.0017,"nx":28,"ny":28,"refTime":"2023-10-03T21:00:00:Z","depth":"4","parameterNumber":3,"parameterNumberName":"V-component_of_CURRENTS"},"data":[0,0,0,0,0,0,0,0,0,0,0,0,0,0,0,0,0,0,0,0,0,0,0,0,0,0,0,0,0,0,0,0,0,0,0,0,0,0,0,0,0,0,0,0,0,0,0,0,0,0,0,0,0,0,0,0,0,0,0.0034,0.0035,0,0.0106,0.0106,0.0107,0.0155,0.0156,0.0156,0.0156,0.0224,0.0226,0.0227,0,0,0,0,0,0,0,0,0,0,0,0,0,-0.0041,-0.004,0.0034,0.0035,0.0036,0.0105,0.0106,0.0107,0.0155,0.0156,0.0156,0.0156,0.0224,0.0226,0.0227,0,0,0,0,0,0,0,0,0,0,0,0,0,0.0007,-0.0039,0.0034,0.0068,0.0072,0.0105,0.0106,0.0108,0.0155,0.0156,0.0156,0.0157,0.0223,0.0225,0.0228,0.0231,0,0,0.0234,0.0235,0,0,0,0,0,0,0,0,0.0004,0.001,0.0062,0.0066,0.007,0.0122,0.0105,0.0149,0.0155,0.0123,0.0156,0.0157,0.019,0.0195,0.0207,0.0234,0.0237,0.0235,0.0236,0.0237,0.0238,0,0,0,0,0,0,0,0.0001,0.0007,0.0062,0.0063,0.0068,0.0087,0.0094,0.0114,0.0152,0.0126,0.013,0.0138,0.0192,0.0204,0.0209,0.0238,0.0235,0.0237,0.0238,0.0239,0.0292,0.0292,0,0,0,0,0,0,-0.0009,0.0004,0.006,0.0064,0.0038,0.0088,0.0096,0.0105,0.0152,0.016,0.0137,0.014,0.02,0.0206,0.0211,0.0222,0.0237,0.0239,0.024,0.0292,0.0292,0.0292,0,0,0,0,0,0,-0.0011,-0.0005,0.0057,0.0036,0.0045,0.0088,0.0098,0.0106,0.0121,0.0161,0.0169,0.0145,0.0201,0.0208,0.0232,0.0225,0.024,0.0242,0.0292,0.0292,0.0292,0.0242,0,0,0,0,0,0,-0.0013,-0.0006,-0.0007,0.0035,0.0046,0.0072,0.0098,0.0107,0.0125,0.0129,0.017,0.0177,0.0202,0.0229,0.0234,0.0229,0.0244,0.0292,0.0292,0.0292,0.0244,0.024,0.0238,0,0,0,0,0,-0.0016,-0.0021,-0.0008,-0.0001,0.0044,0.0072,0.0079,0.0112,0.0125,0.0128,0.0159,0.0175,0.0234,0.023,0.0237,0.0232,0.0291,0.0292,0.0292,0.0245,0.0241,0.0238,0,0,0,0,0,0,-0.0056,-0.0015,0.0,0.0008,0.0036,0.008,0.0084,0.0108,0.0135,0.0137,0.0176,0.0185,0.0203,0.0226,0.0221,0.0249,0.0265,0.0267,0.0227,0.0224,0.0221,0.0199,0.0246,0,0,0,0,0,-0.0065,-0.0058,-0.0016,-0.0012,0.0,0.0041,0.0055,0.0078,0.011,0.0123,0.0151,0.0182,0.0208,0.0223,0.0246,0.0261,0.029,0.0263,0.026,0.0257,0.0244,0.0295,0.0295,0.0292,0.0292,0.0292,0,0,-0.0082,-0.0058,-0.0055,-0.002,0.0003,0.0009,0.005,0.0068,0.0072,0.0124,0.0134,0.017,0.0209,0.0227,0.0236,0.0246,0.0274,0.0257,0.0255,0.0243,0.0295,0.0295,0.0295,0.0293,0.0293,0.0293,0,0,-0.011,-0.0089,-0.0091,-0.0074,-0.0041,-0.0017,-0.0014,0.0028,0.0047,0.0066,0.0105,0.0137,0.0172,0.0203,0.0222,0.0217,0.0255,0.0226,0.0195,0.0244,0.0244,0.0245,0.0283,0.0287,0.0227,0.0227,0.0227,0,-0.0133,-0.0129,-0.0089,-0.0089,-0.0087,-0.0034,-0.0045,-0.0017,0.0027,0.004,0.006,0.0126,0.0159,0.0187,0.0187,0.0209,0.0241,0.0203,0.0239,0.024,0.0242,0.0281,0.0287,0.0225,0.0225,0.0225,0.0225,0,-0.0156,-0.0162,-0.0165,-0.015,-0.0143,-0.0142,-0.0105,-0.0089,-0.006,-0.0027,0.001,0.0068,0.0107,0.0127,0.0154,0.0182,0.0203,0.0227,0.0244,0.0239,0.0281,0.0287,0.0221,0.0222,0.0223,0.0223,0,0,-0.0189,-0.0184,-0.0187,-0.0202,-0.0179,-0.0177,-0.0172,-0.0149,-0.0141,-0.0088,-0.0072,-0.0014,0.003,0.0055,0.0105,0.015,0.0192,0.0187,0.0191,0.0217,0.0295,0.0276,0.0282,0.0227,0.0228,0.0228,0.032,0,-0.0223,-0.0248,-0.0235,-0.0274,-0.0289,-0.0257,-0.0261,-0.0233,-0.019,-0.0158,-0.0083,-0.0048,0.0,0.0025,0.0076,0.0167,0.0207,0.0164,0.0302,0.0306,0.0284,0.0289,0.0231,0.0325,0.0327,0.0328,0.0329,0,-0.0248,-0.0268,-0.0309,-0.0343,-0.0347,-0.0362,-0.0358,-0.0349,-0.0287,-0.0252,-0.0191,-0.0126,-0.0053,-0.001,0.0132,0.0105,0.0184,0.0255,0.0261,0.0262,0.0299,0.0334,0.0341,0.034,0.034,0.0339,0.0338,0,-0.0288,-0.0323,-0.0364,-0.0374,-0.0394,-0.0412,-0.0417,-0.0377,-0.0369,-0.0301,-0.0278,-0.0178,-0.0121,-0.0007,0.0137,0.0138,0.0297,0.0321,0.0376,0.0376,0.0388,0.0386,0.0406,0.0406,0.0406,0.0406,0.0405,0,-0.0326,-0.0363,-0.0389,-0.0415,-0.0472,-0.0463,-0.0493,-0.0474,-0.0437,-0.0421,-0.0327,-0.0284,-0.0117,-0.0002,0.0122,0.0269,0.0289,0.0364,0.0397,0.0365,0.036,0.0393,0.039,0.0409,0.0408,0.0408,0.0407,0,-0.0356,-0.0371,-0.043,-0.0474,-0.0491,-0.0529,-0.0557,-0.0566,-0.0522,-0.0493,-0.0476,-0.0354,-0.0203,-0.0037,0.0159,0.0245,0.0389,0.0433,0.0378,0.0408,0.0438,0.0432,0.0499,0.0499,0.0499,0.0499,0.0499,0,-0.0371,-0.04,-0.0475,-0.0519,-0.0544,-0.0592,-0.0622,-0.0609,-0.0606,-0.0529,-0.0515,-0.0379,-0.0278,-0.0017,0.015,0.0376,0.0405,0.0467,0.0453,0.0421,0.0448,0.0441,0.0435,0.05,0.05,0.05,0.05,0,-0.0408,-0.0432,-0.0481,-0.0567,-0.0622,-0.0676,-0.0709,-0.0716,-0.0677,-0.0642,-0.0535,-0.0393,-0.0227,-0.0024,0.0148,0.031,0.0422,0.0468,0.0469,0.0456,0.0422,0.0447,0.0441,0.05,0.05,0.05,0.05,0,-0.0431,-0.0476,-0.0538,-0.0612,-0.0683,-0.0733,-0.0752,-0.0737,-0.0726,-0.0628,-0.0593,-0.0401,-0.0284,-0.0059,0.0105,0.0258,0.0293,0.0331,0.0339,0.0341,0.0265,0.0197,0.0228,0,0,0,0,0,-0.0448,-0.0501,-0.0578,-0.0658,-0.0724,-0.0764,-0.0796,-0.0795,-0.0754,-0.0686,-0.0635,-0.0473,-0.022,-0.0111,0.0039,0.0093,0.0306,0.027,0.035,0.0501,0.05,0.0436,0,0,0,0,0,0,-0.0465,-0.0538,-0.058,-0.0671,-0.0728,-0.0796,-0.082,-0.0797,-0.075,-0.0684,-0.055,-0.0454,-0.021,-0.0301,0.0039,0.0086,0.0151,0.0397,0.04,0.0501,0.0501,0.05,0.0434,0,0,0,0,0]}]]